Wind_Speed
18 16 15 14 13 11 8 7 7 8 7 6 5 5 4 4 5 7 11 13 12 10 8 8 8 8 9 9 9 8 8 7 6 5 5 7 6 6 4 2 2 2 3 2 3 3 3 5 5
18 16 16 18 16 14 10 9 10 8 9 8 6 6 3 3 5 5 7 11 11 8 7 7 6 6 6 5 4 5 4 5 7 6 4 5 7 8 7 5 2 1 3 3 4 4 5 5 6
18 17 19 21 17 13 12 12 11 10 9 9 7 7 5 4 4 4 6 8 7 6 6 5 4 3 3 3 4 3 3 3 4 6 6 5 5 5 5 5 5 3 2 3 4 5 6 7 8
20 20 24 23 19 14 14 16 14 12 11 8 7 7 7 7 5 4 5 6 6 5 3 3 2 1 0 2 2 2 2 3 3 2 4 5 5 5 6 5 4 3 2 2 4 5 7 8 9
25 24 28 23 18 15 16 17 17 15 14 10 10 9 8 7 8 6 6 5 4 3 2 2 2 2 2 2 1 1 2 2 3 2 1 2 3 3 3 4 5 4 3 1 2 5 8 10 11
23 23 26 24 20 17 19 18 18 16 14 13 13 11 9 8 8 8 7 7 5 4 4 4 3 2 2 3 3 3 4 4 3 1 1 2 3 3 3 3 2 2 2 3 4 6 9 11 12
26 26 29 25 22 21 20 19 18 16 17 13 13 13 13 12 11 10 11 10 8 7 7 5 5 4 5 4 3 3 3 3 4 4 3 4 4 5 5 5 5 6 7 7 8 9 11 12 13
29 28 30 28 25 23 22 22 19 19 19 16 16 18 15 16 16 14 13 12 11 10 9 8 7 6 6 6 6 4 4 4 4 5 5 5 6 6 6 6 6 6 7 7 8 9 10 11 12
31 30 30 31 28 23 24 23 21 20 20 19 18 18 17 16 17 16 14 11 9 9 8 7 8 9 9 9 8 7 6 5 4 4 5 5 5 6 6 6 6 7 7 8 10 11 12 14 15
32 31 32 33 26 22 21 23 24 22 23 23 21 18 19 19 17 16 13 11 9 8 7 6 5 5 4 4 5 5 4 4 5 6 6 6 7 7 7 8 8 8 9 9 10 11 12 13 14
35 35 36 36 31 24 26 27 29 26 24 23 20 18 19 20 19 16 14 14 12 11 9 8 8 7 6 6 5 4 3 3 3 4 3 5 6 7 6 6 7 8 9 10 10 11 11 13 14
38 39 39 37 35 30 32 29 29 31 27 26 21 24 21 20 19 18 17 16 14 13 12 11 11 10 9 9 7 6 6 7 8 9 9 9 9 10 10 12 13 13 13 14 15 16 16 16 16
39 41 42 39 38 37 35 32 35 33 31 28 24 29 23 22 21 21 19 18 16 15 15 15 15 14 13 13 12 12 12 12 13 14 15 15 16 16 17 17 19 20 20 21 20 21 21 23 24
42 44 44 41 41 41 39 37 39 33 34 33 30 30 27 25 24 23 22 20 19 18 18 19 18 18 17 18 18 17 18 19 19 20 20 21 22 21 22 23 24 24 24 25 26 26 26 27 29
46 47 49 46 45 47 46 44 39 36 39 38 34 33 32 29 27 27 26 25 20 19 23 22 21 21 20 21 22 23 22 21 23 24 23 25 26 26 26 27 28 29 28 28 28 30 30 30 31
49 51 54 52 48 52 50 46 41 41 42 41 37 34 35 31 31 31 30 27 20 24 27 25 25 24 24 24 24 25 25 26 27 27 28 28 30 30 31 31 32 33 33 34 35 35 35 36 37
55 56 55 55 50 53 55 52 44 47 45 43 41 37 36 37 34 36 33 28 25 28 29 29 28 28 27 27 27 27 28 29 31 33 35 36 36 36 36 37 38 38 38 39 40 41 42 43 44
55 54 54 57 53 55 57 57 49 49 49 46 47 42 40 39 38 40 36 31 28 31 31 31 33 32 32 32 33 33 34 35 37 37 39 41 44 44 43 43 44 44 44 44 45 47 48 50 50
57 59 58 57 56 55 55 56 48 50 51 51 46 44 43 41 44 43 37 33 31 36 34 34 35 35 36 37 37 38 39 40 41 42 43 43 46 47 48 48 48 49 50 51 51 52 54 55 56
53 57 56 55 58 57 54 53 49 51 52 50 47 46 45 46 46 45 39 35 36 39 36 37 38 38 39 39 39 39 40 41 42 42 44 47 48 50 52 53 53 55 55 56 57 59 60 59 60
47 51 47 49 53 56 54 54 50 50 53 53 50 47 47 45 48 48 41 38 40 42 41 41 41 42 42 42 42 41 42 42 44 47 49 50 51 53 54 56 58 59 61 62 62 63 63 65 66
48 48 46 46 49 54 53 58 49 48 53 52 52 50 47 49 50 48 45 44 45 46 46 46 47 47 47 47 47 47 46 48 51 54 55 54 53 54 56 58 60 62 63 64 65 67 67 68 68
49 47 49 49 51 54 52 56 53 48 52 50 50 52 52 52 52 50 49 50 51 50 51 52 52 52 51 51 52 52 52 57 59 58 58 59 61 61 62 63 64 65 66 66 65 66 66 67 69
53 51 52 52 53 59 55 53 59 51 48 52 52 54 53 53 51 51 52 54 53 54 55 56 55 55 55 54 54 57 62 63 63 64 64 65 67 66 66 66 66 66 66 66 67 68 69 70 71
57 55 55 57 57 60 58 55 57 51 50 52 52 52 53 52 52 53 54 55 57 58 58 59 59 58 57 56 60 67 68 66 68 66 66 66 67 69 68 68 68 68 69 68 68 68 69 70 71
61 52 50 52 57 58 58 60 56 56 52 54 53 54 54 54 54 54 55 58 59 60 61 61 60 60 61 63 67 70 69 69 68 69 69 69 69 68 68 69 69 69 69 69 70 70 70 71 71
62 68 55 54 56 59 62 61 59 56 54 52 55 54 55 56 56 56 56 56 56 58 58 60 61 63 65 67 72 72 73 73 72 71 70 68 67 68 69 69 69 70 70 70 70 70 70 68 67
51 55 58 63 61 61 61 61 58 55 53 55 54 57 57 56 56 55 54 54 55 57 59 62 64 67 71 74 74 74 74 73 70 68 68 68 69 69 69 70 70 70 69 69 68 68 66 64 63
48 52 53 57 59 62 65 68 62 58 55 56 55 54 55 56 56 55 56 57 60 62 66 68 69 70 72 74 74 72 70 69 69 69 69 70 71 71 71 70 69 68 67 66 65 63 62 61 61
51 48 45 46 49 55 60 67 64 60 57 58 59 59 59 57 59 61 63 63 64 67 66 67 70 70 70 68 65 66 68 68 70 71 72 72 70 68 68 67 67 66 64 62 61 60 59 59 58
Wind_Direction
199 198 206 208 204 195 200 176 184 174 168 164 143 127 105 114 119 130 132 139 138 132 132 132 123 126 128 130 130 126 121 120 121 100 95 98 84 70 75 93 185 188 216 236 265 271 264 271 276
204 201 210 215 209 198 195 197 193 189 188 185 185 170 160 136 140 137 140 147 144 133 130 129 124 123 129 120 119 120 118 122 129 129 105 96 101 105 96 96 106 213 225 250 274 293 293 290 301
203 203 211 214 221 215 201 205 205 201 195 194 195 203 193 179 153 151 141 148 149 129 125 123 129 129 116 96 105 96 73 85 127 138 134 106 87 70 78 93 106 130 190 244 277 290 298 300 297
202 207 222 224 224 219 217 212 209 212 208 205 206 194 195 183 174 155 143 143 148 130 131 131 141 147 169 55 45 32 45 37 75 107 131 128 109 85 67 66 66 88 132 209 248 266 274 279 289
214 217 227 233 230 236 231 220 211 220 218 211 216 197 188 186 185 172 147 150 147 162 184 215 230 266 297 309 312 344 333 8 10 40 128 157 145 133 121 102 99 105 110 128 267 273 279 283 285
219 227 235 235 233 229 233 223 216 219 219 215 222 210 206 203 204 197 186 179 179 193 210 212 216 245 294 308 298 264 265 279 288 303 263 226 215 216 211 206 196 209 242 272 285 297 301 301 299
217 222 234 241 239 232 229 229 223 219 226 207 224 217 215 211 210 205 204 207 213 215 213 210 217 242 259 271 282 292 295 285 282 279 264 246 235 230 233 254 275 286 294 298 302 303 302 304 307
221 226 236 235 231 231 232 233 228 225 229 218 220 227 220 218 216 215 211 209 209 211 200 196 202 208 224 241 253 263 287 312 311 301 293 280 263 254 252 251 257 269 283 293 297 300 300 300 306
221 223 233 237 229 223 232 238 238 232 233 232 227 234 229 228 226 224 220 219 219 217 212 209 212 215 218 215 211 213 214 215 229 251 269 278 282 280 275 273 278 284 291 299 303 305 306 308 309
224 225 228 239 235 223 235 242 247 241 240 241 237 229 237 232 227 224 214 210 212 213 217 210 213 222 222 206 210 199 202 195 202 212 220 234 252 259 263 271 276 276 279 284 286 289 292 295 298
228 228 231 236 240 234 237 236 247 246 243 246 244 242 229 226 221 219 215 212 212 218 215 219 217 211 211 212 213 217 232 241 243 241 243 249 250 249 261 261 255 271 272 269 273 278 279 280 281
232 231 233 239 241 237 241 240 244 251 247 245 247 235 226 222 220 221 218 217 219 220 228 229 228 227 236 234 237 251 258 264 268 273 274 274 275 282 284 289 293 290 286 289 293 292 293 292 293
233 236 235 236 243 242 240 243 245 249 251 245 232 240 227 228 228 226 225 225 227 227 228 237 242 242 242 247 254 259 266 271 273 273 274 276 282 287 289 292 293 294 294 294 293 294 296 298 299
235 239 243 241 244 247 246 243 245 252 252 248 237 231 235 231 227 230 230 229 230 233 237 239 244 251 255 259 255 259 268 271 271 271 272 276 280 280 284 287 286 285 287 290 292 294 295 295 296
233 239 240 243 243 248 248 248 249 251 248 244 234 236 233 231 230 235 234 234 234 243 245 243 246 250 258 262 265 271 270 268 273 277 279 284 285 286 286 286 286 286 288 288 287 286 286 286 287
238 238 243 242 246 250 253 249 254 250 247 244 231 234 241 235 235 240 241 241 242 250 250 254 255 257 261 261 265 273 278 283 284 285 285 285 287 290 291 290 291 291 292 292 290 287 285 286 287
242 243 245 248 246 251 252 252 252 249 244 240 237 235 238 241 239 243 244 248 246 252 258 260 263 268 271 274 277 277 277 281 284 287 289 290 289 289 290 291 291 291 292 293 292 292 292 291 291
249 251 252 252 248 249 250 253 251 247 245 235 236 234 239 242 243 243 247 249 252 259 262 268 271 273 275 277 279 280 283 284 285 285 288 290 291 291 290 290 290 289 289 290 290 291 291 291 290
247 248 251 255 255 252 250 251 252 250 241 238 233 240 240 241 243 245 246 250 253 257 260 264 268 271 273 275 277 280 282 283 283 284 285 284 285 285 286 288 288 289 289 290 289 289 289 288 287
250 250 251 254 256 254 252 250 247 245 243 238 239 239 240 240 246 249 249 251 255 259 262 264 266 269 271 274 276 277 279 279 281 284 284 285 285 286 287 287 286 286 287 288 289 289 288 287 287
249 252 251 253 253 255 253 248 246 244 241 240 237 241 244 245 248 250 252 254 256 261 264 266 266 268 270 271 273 275 277 279 281 284 285 285 285 285 284 285 286 287 288 288 288 288 288 288 287
246 251 253 253 251 251 251 249 244 241 243 242 242 242 244 247 248 252 255 257 259 260 264 267 269 270 271 272 272 274 277 282 287 288 288 287 286 285 285 285 285 285 285 285 285 285 286 286 287
249 248 251 251 253 252 249 251 240 240 242 245 246 245 248 249 252 255 258 259 260 263 264 267 270 271 272 273 274 276 281 285 288 288 285 284 285 285 285 285 285 285 285 285 285 285 286 286 286
248 248 249 250 251 252 251 251 245 240 239 243 245 248 251 253 255 257 259 261 263 264 265 268 270 271 270 271 275 280 286 287 286 287 284 285 285 285 286 286 286 286 285 285 285 285 285 285 285
251 251 251 253 253 254 258 255 254 252 246 245 247 250 252 255 257 258 261 263 264 266 267 268 269 268 268 272 278 282 285 287 288 285 284 283 283 284 285 285 285 284 284 284 284 284 283 283 283
254 253 253 258 259 258 258 255 251 255 254 254 252 251 253 257 259 261 262 263 264 264 265 266 267 267 270 273 278 282 282 284 284 283 282 281 282 283 283 282 282 283 283 283 284 284 284 283 283
249 250 256 257 258 257 257 254 254 255 257 258 261 260 259 258 260 261 262 262 262 264 265 265 266 268 270 273 280 280 280 281 281 280 280 281 280 280 280 280 280 281 282 283 283 283 283 283 284
248 249 248 250 252 255 257 259 259 261 264 266 259 261 263 263 265 264 263 262 261 262 263 265 267 270 275 279 279 278 279 279 279 279 279 279 279 279 280 281 282 283 283 283 282 283 283 282 281
252 252 252 252 252 254 256 254 254 257 262 265 267 264 262 262 263 264 263 265 268 269 270 271 273 275 275 276 276 276 277 277 277 278 278 278 279 280 281 283 283 282 282 282 282 281 280 280 280
247 248 248 253 256 258 258 255 256 258 258 260 262 266 266 262 261 263 267 271 272 273 275 276 275 273 272 272 273 274 274 275 276 278 279 280 281 282 282 283 283 283 282 282 281 280 279 278 278
Height
5872 5874 5875 5876 5879 5878 5879 5881 5880 5880 5880 5881 5881 5881 5882 5882 5882 5883 5881 5880 5882 5882 5883 5883 5884 5884 5884 5885 5885 5886 5886 5887 5887 5887 5887 5886 5886 5886 5887 5888 5889 5889 5890 5891 5891 5891 5891 5891 5891
5871 5872 5874 5873 5875 5876 5879 5879 5880 5880 5880 5881 5882 5882 5882 5883 5882 5882 5882 5882 5883 5883 5884 5885 5885 5886 5886 5886 5887 5887 5886 5887 5887 5887 5888 5888 5888 5887 5888 5888 5888 5889 5890 5890 5891 5891 5891 5891 5890
5869 5871 5872 5871 5873 5877 5879 5878 5879 5879 5880 5881 5882 5882 5883 5883 5883 5884 5884 5884 5884 5885 5885 5886 5886 5887 5887 5888 5888 5888 5887 5887 5887 5887 5888 5889 5889 5889 5888 5888 5887 5887 5888 5889 5889 5890 5890 5890 5890
5867 5871 5869 5869 5871 5877 5877 5877 5878 5879 5880 5881 5882 5883 5883 5883 5884 5884 5885 5885 5886 5886 5887 5887 5887 5887 5888 5888 5888 5888 5888 5887 5887 5887 5888 5889 5889 5889 5888 5888 5889 5889 5888 5888 5887 5887 5887 5887 5887
5865 5867 5865 5868 5872 5875 5875 5875 5877 5878 5880 5881 5882 5883 5883 5883 5884 5885 5886 5886 5886 5886 5887 5887 5887 5887 5887 5888 5888 5888 5888 5887 5887 5887 5887 5888 5888 5888 5888 5888 5888 5888 5887 5887 5887 5886 5886 5885 5885
5863 5865 5863 5864 5869 5872 5872 5873 5875 5877 5879 5880 5882 5883 5883 5883 5884 5885 5885 5886 5886 5886 5886 5887 5886 5886 5886 5887 5887 5887 5887 5886 5886 5886 5885 5886 5887 5887 5887 5887 5886 5886 5886 5886 5885 5885 5885 5884 5883
5859 5860 5859 5862 5867 5868 5869 5871 5874 5877 5876 5881 5880 5881 5882 5883 5883 5883 5884 5885 5885 5886 5886 5886 5886 5886 5886 5886 5886 5886 5886 5886 5885 5885 5884 5884 5884 5885 5885 5886 5886 5886 5886 5885 5885 5884 5883 5882 5881
5855 5856 5856 5859 5863 5867 5867 5868 5872 5874 5873 5878 5879 5877 5880 5881 5881 5882 5883 5884 5885 5885 5886 5886 5886 5886 5886 5886 5886 5886 5886 5886 5885 5885 5884 5884 5883 5883 5883 5883 5883 5883 5883 5882 5882 5881 5880 5879 5879
5850 5853 5853 5854 5856 5865 5865 5866 5868 5871 5872 5874 5877 5877 5878 5878 5879 5880 5881 5882 5883 5884 5884 5884 5885 5885 5885 5885 5885 5885 5884 5884 5884 5884 5883 5883 5883 5882 5882 5882 5881 5880 5880 5879 5879 5879 5878 5877 5876
5846 5850 5849 5849 5854 5862 5864 5864 5865 5868 5868 5870 5873 5874 5875 5875 5877 5878 5879 5880 5881 5882 5883 5883 5883 5884 5884 5884 5884 5884 5883 5883 5883 5882 5882 5882 5881 5881 5881 5880 5879 5879 5878 5877 5876 5875 5874 5873 5872
5841 5844 5844 5844 5851 5856 5859 5860 5859 5862 5866 5868 5871 5871 5871 5872 5874 5875 5877 5878 5879 5880 5881 5882 5882 5882 5883 5883 5883 5883 5883 5883 5882 5881 5881 5880 5880 5879 5878 5878 5877 5876 5875 5874 5873 5871 5870 5869 5868
5836 5837 5838 5842 5844 5851 5852 5857 5857 5857 5861 5865 5867 5866 5866 5868 5870 5872 5874 5875 5876 5878 5879 5879 5880 5881 5881 5881 5882 5882 5882 5882 5881 5880 5880 5879 5879 5878 5878 5877 5876 5874 5873 5872 5871 5869 5868 5866 5864
5829 5831 5833 5838 5840 5843 5848 5852 5851 5853 5855 5860 5865 5862 5864 5865 5867 5869 5870 5871 5873 5875 5876 5876 5877 5878 5879 5879 5879 5879 5879 5879 5878 5878 5878 5877 5876 5876 5875 5874 5873 5872 5870 5869 5867 5866 5864 5862 5860
5823 5825 5828 5834 5836 5837 5842 5845 5846 5853 5851 5853 5857 5860 5860 5860 5863 5865 5865 5868 5869 5871 5871 5872 5873 5874 5874 5875 5876 5876 5875 5875 5874 5874 5874 5873 5872 5872 5871 5870 5869 5868 5867 5865 5863 5862 5860 5858 5856
5815 5818 5820 5825 5829 5829 5833 5836 5843 5847 5844 5846 5851 5854 5855 5855 5858 5859 5861 5862 5866 5867 5865 5867 5869 5869 5870 5871 5870 5870 5870 5871 5869 5869 5869 5868 5867 5867 5866 5865 5863 5861 5861 5861 5859 5857 5855 5852 5850
5806 5809 5809 5817 5821 5822 5826 5830 5837 5839 5838 5840 5845 5849 5849 5850 5852 5853 5855 5857 5861 5859 5859 5861 5862 5864 5864 5865 5865 5865 5865 5864 5864 5863 5862 5862 5860 5860 5859 5858 5856 5855 5853 5852 5851 5849 5847 5845 5843
5796 5798 5803 5807 5816 5814 5816 5821 5831 5829 5830 5835 5838 5843 5844 5844 5846 5846 5849 5852 5855 5853 5854 5855 5856 5857 5857 5857 5858 5859 5859 5858 5857 5856 5854 5853 5853 5852 5851 5849 5848 5847 5846 5844 5842 5839 5837 5835 5834
5788 5793 5795 5796 5804 5804 5805 5809 5820 5821 5821 5827 5829 5835 5837 5838 5840 5839 5843 5846 5849 5848 5847 5848 5848 5849 5850 5850 5849 5849 5850 5850 5850 5849 5848 5846 5843 5842 5841 5840 5839 5837 5836 5835 5833 5830 5827 5825 5823
5775 5779 5783 5788 5791 5793 5796 5800 5810 5811 5812 5816 5824 5827 5830 5832 5830 5833 5838 5841 5843 5841 5842 5842 5842 5842 5843 5843 5842 5842 5841 5840 5841 5841 5841 5839 5837 5834 5833 5831 5830 5828 5826 5824 5822 5820 5817 5814 5811
5765 5769 5774 5777 5779 5782 5785 5790 5797 5801 5804 5810 5815 5817 5821 5822 5822 5825 5831 5834 5834 5833 5835 5835 5835 5834 5834 5834 5835 5834 5833 5832 5831 5832 5831 5829 5827 5825 5823 5820 5819 5816 5814 5812 5809 5806 5804 5801 5798
5756 5758 5765 5768 5769 5771 5774 5778 5786 5792 5794 5799 5806 5810 5812 5815 5814 5816 5823 5825 5825 5824 5825 5826 5826 5825 5825 5825 5825 5824 5823 5822 5821 5821 5821 5820 5817 5815 5813 5810 5807 5804 5802 5799 5796 5793 5790 5787 5784
5747 5750 5753 5755 5757 5760 5763 5764 5777 5783 5786 5790 5796 5801 5803 5804 5805 5809 5813 5814 5814 5815 5815 5815 5815 5815 5815 5814 5814 5813 5812 5812 5810 5809 5808 5807 5805 5803 5801 5799 5796 5792 5789 5785 5782 5778 5775 5772 5769
5738 5742 5742 5745 5745 5747 5755 5755 5767 5773 5778 5783 5787 5789 5792 5795 5797 5801 5802 5802 5802 5803 5803 5803 5803 5803 5803 5802 5802 5802 5801 5800 5798 5796 5794 5793 5791 5788 5786 5784 5781 5778 5775 5771 5767 5763 5760 5757 5755
5726 5730 5732 5733 5735 5733 5744 5749 5753 5765 5770 5771 5775 5778 5782 5785 5788 5789 5789 5789 5791 5790 5790 5790 5791 5791 5790 5790 5790 5789 5788 5786 5785 5783 5780 5778 5776 5773 5771 5768 5765 5762 5759 5756 5752 5750 5746 5743 5739
5716 5719 5720 5720 5725 5727 5732 5739 5748 5753 5760 5762 5766 5769 5771 5774 5775 5776 5776 5776 5777 5777 5778 5777 5777 5777 5777 5778 5776 5775 5774 5773 5772 5769 5767 5764 5761 5758 5756 5753 5750 5746 5743 5740 5737 5734 5731 5728 5724
5706 5707 5711 5712 5713 5719 5721 5724 5737 5739 5747 5748 5753 5756 5759 5761 5762 5764 5764 5764 5763 5763 5763 5763 5763 5763 5764 5763 5763 5762 5761 5759 5757 5754 5751 5749 5747 5744 5741 5737 5733 5730 5727 5724 5722 5718 5714 5710 5706
5692 5691 5704 5702 5703 5704 5707 5717 5723 5729 5732 5736 5738 5743 5746 5748 5747 5748 5748 5748 5747 5748 5748 5749 5750 5749 5749 5749 5749 5747 5744 5742 5740 5738 5736 5734 5731 5728 5723 5720 5717 5714 5711 5708 5705 5701 5697 5693 5689
5677 5684 5686 5685 5690 5691 5699 5705 5715 5721 5724 5721 5727 5727 5728 5730 5731 5732 5731 5731 5732 5733 5734 5735 5735 5734 5735 5735 5733 5730 5728 5726 5724 5722 5720 5717 5713 5710 5707 5704 5702 5699 5695 5690 5687 5683 5679 5676 5672
5669 5671 5674 5675 5678 5682 5687 5696 5705 5710 5711 5710 5709 5712 5714 5716 5717 5716 5715 5716 5717 5719 5719 5720 5720 5720 5718 5717 5716 5714 5713 5710 5707 5705 5702 5700 5697 5694 5691 5688 5685 5682 5677 5673 5670 5667 5664 5661 5657
5655 5659 5662 5663 5670 5672 5674 5684 5696 5698 5699 5696 5695 5693 5696 5701 5703 5701 5701 5701 5702 5703 5703 5704 5703 5701 5700 5700 5699 5698 5696 5694 5691 5688 5686 5683 5680 5677 5673 5670 5667 5663 5659 5656 5654 5651 5648 5645 5642